Flag for Germany Weather past 2 weeks in Backnang, Baden-Württemberg, Germany

Now
33 °F

Low clouds.


Feels Like: 30 °F
Forecast: 33 / 35 °F
Wind: 3 mph from West

Location: Oehringen

Current Time: Jan 26, 2015 at 3:40:54 AM

Latest Report: Jan 26, 2015 at 3:00 AM


Visibility: 3 mi

Pressure: 30.39 "Hg

Humidity: 93%

Dew point: 32 °F

Location of BacknangLocation

Historic Weather in Backnang — Graph

°F

Backnang temperature yesterday

Maximum temperature yesterday: 35 °F (at 4:00 PM)
Minimum temperature yesterday: 31 °F (at 3:00 AM)
Average temperature yesterday: 33 °F

Past Weeks' High & Low Weather Summary

 TemperatureHumidityPressure
High59 °F (Jan 13, 3:00 PM)100% (Jan 16, 6:00 PM)30.45 "Hg (Jan 16, 6:00 PM)
Low27 °F (Jan 21, 4:00 AM)29% (Jan 13, 2:00 PM)29.71 "Hg (Jan 15, 8:00 PM)
Average38 °F81%30.04 "Hg
* Reported Jan 11 2:00 AM — Jan 26 2:00 AM, Backnang, Weather by CustomWeather, © 2014

Note: Actual official high and low records may vary slightly from our data, if they occured in-between our weather recording intervals... More about our weather records

Advertising

Backnang weather history for previous 24 hours

 ConditionsComfort  
Time TempWeatherWind HumidityBarometerVisibility
2:00 AM
Jan 26
33 °FLow clouds.2 mph94%30.40 "Hg2 mi
1:00 AM33 °FFog.3 mph95%30.41 "Hg2 mi
12:00 AM33 °FFog.3 mph95%30.42 "Hg2 mi
11:00 PM
Jan 25
34 °FFog.3 mph94%30.42 "Hg2 mi
10:00 PM34 °FFog.3 mph92%30.43 "Hg3 mi
9:00 PM34 °FFog.5 mph91%30.43 "Hg4 mi
8:00 PM35 °FLow clouds.3 mph92%30.43 "Hg4 mi
7:00 PM35 °FDrizzle. Low clouds.2 mph92%30.44 "Hg4 mi
6:00 PM34 °FFog.2 mph91%30.43 "Hg4 mi
5:00 PM35 °FOvercast.2 mph89%30.43 "Hg6 mi
4:00 PM35 °FOvercast.3 mph89%30.42 "Hg5 mi
3:00 PM35 °FOvercast.3 mph88%30.42 "Hg5 mi
2:00 PM35 °FFog.3 mph90%30.43 "Hg4 mi
1:00 PM34 °FFog.2 mph92%30.44 "Hg3 mi
12:00 PM34 °FFog.3 mph91%30.45 "Hg3 mi
11:00 AM33 °FFog.2 mph92%30.45 "Hg2 mi
10:00 AM33 °FOvercast.2 mph94%30.44 "Hg2 mi
9:00 AM32 °FFog.2 mph96%30.44 "Hg2 mi
8:00 AM32 °FOvercast.2 mph98%30.42 "Hg1 mi
7:00 AM32 °FFog.2 mph97%30.40 "Hg1 mi
6:00 AM32 °FFog.2 mph98%30.38 "Hg2 mi
4:00 AM32 °FFog.2 mph98%30.34 "Hg1 mi
3:00 AM31 °FFog.2 mph98%30.33 "Hg1 mi
Weather by CustomWeather, © 2014

See weather overviewHow to use our weather pages